Voltar ao catálogo

STARLINK-2594

AtivoComunicaçõesVLEO
NORAD 48388·PAYLOAD·🇺🇸 United States

Lançado May 4, 2021 de Cape Canaveral Space Force Station

Loading…

Próximas Passagens (próximas 24 horas)

TLE

AtualizadoSource: CelesTrak SupGP

Época: Sep 14, 2026, 20:44 UTC

1 48388C 21038AM  26257.86437500 -.00006199  00000+0 -19916-3 0  2572
2 48388  53.1606 184.9479 0001430  95.2328 315.0449 15.31732065    13

Acompanhe STARLINK-2594 em tempo real com AllMySat

Download on the App Store